Volver al catálogo

FENGYUN 1C DEB

ActivoPO
NORAD 37719·DEBRIS·🇨🇳 China

Lanzado May 10, 1999 desde Taiyuan Satellite Launch Center

Loading…

Próximos Pases (próximas 24 horas)

TLE

ObsoletoSource: Space-Track

Época: Aug 26, 2026, 23:56 UTC

1 37719U 99025EML 26238.99743484  .00002380  00000-0  51890-3 0  9990
2 37719  99.4782 305.6856 0043235 211.2087 273.7744 14.58494516 39866

Sigue FENGYUN 1C DEB en tiempo real con AllMySat

Download on the App Store